Temp
14 14 15 16 18 16 18 17 17 17 17 19 21 22 23 22 22 23 23 22 21 21 20 19 19 18 18 17 17 17 17 17 17 17 17 17 17 16 15 14 14 15 15 15
14 15 15 16 16 16 15 17 18 16 15 16 19 20 21 21 22 22 23 22 21 20 18 15 16 16 17 16 15 16 15 15 15 15 15 16 16 14 13 13 14 14 14 14
15 16 17 16 15 16 16 17 17 18 15 16 18 19 20 21 20 18 18 18 20 20 16 15 14 13 13 13 13 13 13 13 14 14 14 14 14 12 11 11 12 12 12 12
14 16 16 16 16 16 16 17 17 15 17 17 18 19 20 22 20 17 16 17 17 16 15 13 12 11 10 10 11 11 11 11 12 12 12 12 11 9 9 9 9 9 10 10
15 15 15 16 17 17 16 16 16 16 15 15 16 16 21 20 19 18 15 14 14 14 13 12 11 10 9 9 8 9 10 11 11 12 12 12 10 10 11 11 11 11 10 10
15 13 15 17 17 17 15 15 14 14 15 15 16 16 18 18 20 17 14 13 12 12 11 11 10 9 8 8 7 8 9 9 9 10 10 10 10 8 9 9 8 7 8 9
13 13 13 13 16 14 16 15 14 15 15 16 14 16 18 18 17 16 14 12 12 12 11 10 9 8 7 6 7 6 7 7 8 9 9 8 8 8 7 6 5 5 5 7
12 12 14 14 15 15 14 15 17 17 16 17 12 15 18 15 16 15 13 12 12 11 11 10 8 6 6 5 7 7 7 7 6 6 6 6 5 4 5 6 7 8 7 5
12 12 11 12 12 15 14 13 14 14 10 15 15 15 14 14 13 13 12 12 11 10 9 7 5 4 3 4 5 5 5 4 4 5 5 5 6 6 6 6 6 6 6 5
12 12 10 11 11 12 14 14 13 13 14 15 15 15 19 13 13 12 12 11 10 8 7 6 5 3 3 3 4 4 3 3 3 5 4 4 4 4 5 6 6 5 5 5
10 12 10 10 11 11 11 12 11 14 13 15 16 17 14 15 14 13 12 10 8 6 6 5 4 2 1 2 2 3 4 4 4 4 3 4 4 4 4 4 4 4 3 3
10 10 11 11 8 9 10 12 13 16 12 13 13 16 11 12 14 13 11 8 7 6 5 4 3 3 4 3 3 2 2 2 3 4 4 3 3 3 2 2 1 2 2 2
9 10 11 10 10 8 10 10 12 13 13 13 15 18 11 12 14 13 10 8 6 5 4 4 5 5 4 2 2 1 1 2 2 2 2 1 1 0 0 1 0 0 0 0
9 9 11 14 13 12 10 10 10 12 12 14 15 15 11 11 12 10 9 8 6 5 5 6 5 4 3 2 1 0 0 1 1 1 0 -0 -1 -1 -1 -0 -0 -0 -1 -2
9 9 10 10 10 11 12 11 9 11 13 14 15 15 14 11 11 10 10 8 7 6 6 6 4 3 2 1 0 -0 -1 -1 -1 -1 -1 -1 -1 -1 -1 -2 -2 -2 -3 -4
9 9 9 8 10 11 10 11 11 11 12 12 13 13 13 12 11 10 9 8 7 7 7 5 3 2 1 1 -0 -1 -1 -1 -1 -1 -2 -2 -2 -3 -4 -4 -4 -4 -4 -4
8 8 8 11 9 10 10 11 11 12 12 14 13 15 11 10 10 9 9 9 8 7 6 5 3 2 0 -1 -1 -2 -3 -3 -3 -3 -3 -4 -5 -5 -5 -4 -5 -5 -5 -5
7 8 8 9 7 11 12 10 12 12 12 13 13 11 11 11 11 10 10 9 8 6 5 4 2 0 -1 -2 -3 -3 -3 -4 -3 -4 -5 -5 -5 -6 -5 -6 -6 -6 -6 -7
6 9 7 9 10 10 11 9 10 10 13 13 12 12 11 10 9 8 9 9 8 6 4 2 1 -1 -2 -3 -3 -4 -3 -3 -5 -6 -6 -6 -6 -6 -7 -7 -7 -8 -7 -7
5 6 9 6 11 11 13 9 9 11 12 11 13 11 9 9 10 11 7 6 4 3 1 0 -1 -3 -3 -4 -4 -3 -4 -6 -7 -7 -7 -7 -7 -8 -9 -7 -7 -7 -8 -7
6 7 9 7 10 10 9 8 8 11 13 8 9 10 9 10 12 9 5 4 3 1 -0 -2 -3 -3 -4 -4 -4 -5 -6 -7 -7 -7 -7 -8 -8 -8 -8 -8 -7 -7 -9 -10
8 8 8 5 8 11 8 8 11 10 8 6 8 8 9 6 4 4 4 2 0 -1 -2 -3 -3 -5 -5 -4 -4 -6 -7 -7 -8 -8 -8 -8 -7 -7 -7 -8 -9 -10 -11 -10
6 9 10 9 11 8 7 8 8 6 7 6 6 7 6 4 4 3 3 1 -0 -1 -3 -4 -4 -6 -5 -5 -6 -7 -8 -8 -8 -8 -8 -8 -7 -8 -9 -10 -10 -11 -11 -11
4 3 6 6 8 7 7 6 5 5 6 5 6 5 5 5 3 2 1 -1 -2 -4 -5 -4 -5 -6 -6 -7 -7 -8 -8 -8 -8 -8 -8 -9 -9 -9 -9 -10 -10 -11 -12 -11
5 3 3 4 6 5 6 5 6 5 4 3 3 3 5 3 2 1 -0 -2 -3 -5 -4 -4 -5 -6 -7 -8 -8 -8 -8 -8 -9 -9 -9 -10 -10 -10 -10 -10 -10 -12 -13 -13
2 4 7 8 8 9 8 6 5 3 3 3 3 1 1 2 1 -1 -2 -3 -4 -5 -5 -5 -6 -7 -7 -8 -8 -9 -9 -9 -9 -10 -10 -11 -10 -10 -10 -12 -13 -12 -11 -12
Height
826 828 826 826 821 829 826 832 837 835 838 835 829 826 820 822 823 821 821 825 828 832 835 839 842 846 849 851 852 854 855 857 858 861 862 863 864 864 865 865 865 863 863 861
829 826 826 823 827 830 835 831 833 842 843 847 836 831 823 822 822 821 820 821 826 831 839 841 843 846 848 849 851 852 853 855 856 858 860 862 862 862 864 866 865 863 862 860
822 821 818 822 826 831 830 831 834 832 845 842 837 833 825 817 825 829 829 827 826 829 837 843 847 849 850 850 850 852 852 854 855 856 859 860 861 863 865 868 867 864 863 861
827 821 820 824 827 829 835 828 829 839 840 843 835 836 818 813 820 829 833 831 833 837 841 846 849 852 854 854 854 853 852 854 855 856 858 861 862 865 866 871 871 867 866 863
820 823 823 826 823 824 830 831 832 835 845 846 844 847 809 813 821 826 836 840 841 842 844 849 853 855 857 858 859 858 856 856 858 858 861 863 867 870 863 866 867 870 869 866
821 826 822 821 820 821 831 835 842 848 845 845 837 842 824 823 814 826 836 843 846 848 851 854 857 860 859 860 862 864 860 859 861 862 864 865 866 876 868 864 866 870 869 868
824 826 827 827 825 831 825 836 848 849 846 833 843 837 817 818 818 823 834 844 848 848 853 858 859 862 863 863 862 867 871 864 866 867 868 870 869 877 874 869 868 869 869 865
825 835 826 826 823 823 833 830 823 829 831 829 851 834 813 823 822 827 836 844 848 851 856 860 863 864 865 866 865 869 874 868 872 872 871 868 870 876 878 869 868 863 866 870
822 828 833 831 831 825 831 837 835 837 862 839 831 828 829 828 832 837 843 846 850 856 861 866 868 869 868 866 870 873 872 867 875 872 876 873 873 882 884 875 872 867 869 869
823 824 837 833 833 831 827 831 842 842 838 831 827 826 801 829 832 838 843 848 855 862 866 868 871 872 871 870 872 873 874 874 872 873 873 875 876 882 880 878 875 872 869 866
828 823 838 840 832 835 838 834 841 831 834 822 819 807 820 818 825 833 840 850 859 865 869 870 872 873 873 874 876 874 876 877 879 879 878 878 879 880 879 878 874 872 871 870
828 831 827 829 842 839 835 829 826 815 834 833 830 811 830 827 823 829 840 853 859 865 868 871 872 872 874 876 875 876 878 879 880 882 881 880 880 879 878 877 876 874 873 870
829 831 826 834 838 842 834 835 831 827 825 829 818 801 827 824 823 830 840 853 861 865 870 872 874 875 876 878 879 879 879 880 881 882 882 882 883 881 878 877 876 874 871 870
827 833 820 803 808 818 830 835 834 828 830 820 814 812 828 826 824 835 844 853 858 865 868 870 875 877 880 881 881 881 881 881 883 883 884 884 881 880 878 876 874 872 871 871
827 826 828 829 825 819 815 823 835 827 818 818 807 809 811 822 826 836 843 852 857 864 866 868 873 877 879 882 883 884 883 883 882 886 883 882 881 878 879 877 874 874 872 869
825 829 829 836 828 823 824 824 823 824 823 821 816 812 812 820 830 838 844 849 856 859 863 869 871 876 880 882 882 882 883 882 881 885 884 882 881 880 880 879 876 874 871 868
826 833 833 822 835 830 828 815 816 810 811 805 807 800 817 825 827 829 835 842 848 855 863 865 870 876 879 878 883 883 883 882 882 884 882 884 883 883 881 878 876 874 870 867
829 831 833 833 845 819 803 814 807 808 806 804 803 808 809 812 820 827 832 835 845 854 861 868 873 876 877 880 882 882 882 883 880 881 885 883 881 882 880 879 877 871 868 868
834 825 837 825 817 815 802 814 812 812 796 799 803 808 813 819 828 834 836 841 847 854 862 868 873 876 878 878 880 882 881 878 880 884 884 881 881 881 881 878 874 870 868 868
837 833 823 849 812 806 793 810 812 808 799 797 793 803 815 821 823 816 835 843 850 856 861 866 871 875 879 879 879 876 876 880 883 883 881 881 880 881 878 874 871 870 868 866
832 832 822 833 813 809 809 813 814 806 793 804 800 800 808 808 806 815 832 843 849 856 862 867 871 875 875 875 875 875 878 881 881 880 879 880 880 878 875 872 871 870 868 867
819 821 823 844 828 806 812 815 801 800 804 806 804 804 806 817 823 827 833 843 850 856 861 866 870 872 873 873 874 876 878 879 879 879 879 878 875 873 872 871 871 869 867 864
826 811 804 813 797 806 808 804 804 807 806 805 806 806 812 820 825 829 835 842 849 855 860 864 868 870 871 873 874 876 877 877 877 876 875 874 873 873 872 871 869 866 862 858
828 828 820 817 799 803 805 806 806 807 806 804 805 807 809 814 822 829 837 844 849 855 859 863 865 867 869 872 873 874 875 874 873 873 873 873 873 871 869 867 865 863 860 858
820 826 822 819 806 807 799 801 801 805 806 805 809 811 811 816 825 831 838 844 849 854 858 861 863 866 869 870 871 871 872 872 872 872 871 871 871 868 866 863 861 859 857 856
815 806 802 793 789 787 789 792 800 805 806 806 809 815 818 819 825 832 837 842 846 851 855 859 862 864 866 867 868 869 870 870 870 870 870 868 866 863 861 860 858 856 854 852
Wind_Speed
3 3 6 9 13 2 6 6 3 1 2 5 15 15 13 6 5 6 7 7 8 8 4 6 8 8 6 5 7 7 7 7 7 7 7 6 4 1 0 0 2 3 5 7
2 5 2 5 5 4 1 5 7 3 4 6 7 15 10 6 6 7 5 7 8 10 7 7 6 5 7 5 5 4 4 3 4 5 5 3 3 7 7 6 6 7 8 9
9 1 9 3 5 7 5 6 4 4 3 1 1 8 10 11 7 1 2 1 8 11 9 8 9 8 8 9 9 8 7 6 4 3 2 2 7 10 8 12 12 14 13 13
8 8 6 8 11 5 3 4 5 8 6 5 7 4 13 18 10 5 2 5 7 11 11 12 13 13 13 13 13 14 14 13 13 12 13 12 13 13 16 12 12 15 17 17
6 6 9 9 10 11 2 4 5 5 6 1 5 4 5 9 14 9 6 7 9 10 12 13 16 16 16 16 16 17 21 24 23 23 22 22 19 16 18 15 16 15 16 19
5 1 5 8 5 13 12 7 6 4 2 5 9 8 3 7 15 10 9 10 11 13 14 18 19 19 21 22 23 23 28 29 27 26 25 25 24 14 19 20 16 14 15 18
6 4 2 1 8 7 5 8 2 3 3 5 0 9 9 3 5 14 16 14 14 15 15 15 20 20 22 25 28 24 26 30 29 29 28 25 25 18 18 16 15 13 14 22
8 5 9 5 4 6 9 5 4 5 5 3 2 6 2 4 5 13 14 16 16 17 15 16 20 19 20 22 28 26 23 26 24 24 23 23 21 20 17 18 16 17 17 15
4 3 0 3 1 2 6 6 2 4 2 2 4 2 3 8 12 15 17 18 17 15 14 14 16 15 17 23 22 18 17 20 17 21 19 20 17 13 13 15 15 16 15 15
3 3 2 3 1 3 4 13 3 1 6 5 5 5 5 12 17 18 18 18 15 12 11 11 12 12 15 18 17 15 13 14 13 11 12 14 14 11 12 13 14 14 14 16
3 1 3 1 5 6 4 4 2 2 1 3 2 3 2 14 18 21 19 15 11 10 9 10 11 10 13 15 13 16 16 15 15 15 14 14 13 12 12 13 14 14 14 14
3 1 2 3 1 2 1 2 4 5 5 2 1 2 1 6 15 18 16 13 11 11 10 13 12 12 12 13 13 14 13 14 14 13 13 13 12 12 12 13 13 13 13 14
7 3 4 3 1 1 3 2 4 2 1 6 4 1 4 5 15 16 17 15 12 12 11 13 13 12 12 12 11 11 13 13 12 11 11 11 11 11 12 13 13 13 14 14
4 2 3 1 3 5 4 5 6 4 3 4 5 2 4 8 16 17 17 16 13 12 12 12 12 12 11 10 10 10 11 11 10 9 9 10 11 11 12 12 12 13 13 13
5 3 2 1 2 3 4 9 10 7 6 8 1 7 10 16 16 16 16 16 16 15 14 12 11 12 11 10 8 9 9 8 8 7 9 10 10 11 11 11 11 11 11 10
4 3 2 0 1 3 2 6 14 14 8 7 6 7 4 14 14 16 18 18 17 16 14 13 14 13 11 10 9 8 7 7 7 7 9 10 9 9 9 8 9 10 10 11
4 6 3 4 0 3 5 16 16 12 11 12 11 4 15 16 19 20 20 20 19 18 15 14 15 14 11 10 9 8 7 7 7 7 8 7 7 7 8 9 9 10 11 11
4 4 1 2 2 5 1 3 11 16 11 17 3 7 17 16 14 15 16 18 17 16 15 16 15 13 11 10 10 9 7 7 7 7 4 5 6 6 7 7 8 9 10 10
2 3 3 3 6 5 2 5 7 12 10 15 15 6 9 11 11 10 11 14 15 18 18 16 14 14 12 10 10 9 7 7 6 3 3 4 4 4 5 6 8 10 11 10
3 2 1 3 3 6 1 2 2 4 7 3 18 15 16 16 11 10 14 17 19 19 17 18 16 14 11 10 9 7 7 5 2 0 1 2 3 3 5 8 9 9 9 10
2 2 3 3 4 5 2 4 3 5 1 4 7 13 19 14 5 12 18 17 21 19 18 16 15 12 9 9 8 7 6 4 2 0 1 2 3 3 5 7 7 8 8 8
5 6 4 3 3 9 6 4 7 1 2 2 4 10 14 7 10 16 17 18 21 20 18 15 14 11 10 9 8 8 6 4 1 1 1 1 3 5 5 5 5 6 8 8
3 4 2 7 4 1 5 3 1 1 3 2 6 11 15 14 12 17 16 19 19 19 16 14 14 13 10 9 9 7 6 4 3 2 0 1 3 3 4 5 6 5 8 10
4 3 3 1 5 10 8 6 5 2 4 4 5 12 15 15 16 13 13 16 17 16 16 18 16 13 10 9 8 8 6 3 2 2 1 2 3 3 4 5 8 9 9 10
1 8 4 5 7 6 11 9 3 4 4 6 8 7 10 15 12 13 9 14 16 18 17 17 17 13 11 10 8 7 5 3 3 3 2 3 4 5 6 8 8 8 7 8
8 8 7 6 5 3 1 6 10 8 7 9 9 5 7 11 12 14 13 16 20 20 18 17 15 13 12 11 10 7 6 5 4 3 3 4 4 6 7 9 10 11 10 12
Wind_Direction
173 192 200 186 198 77 170 155 143 198 94 210 217 233 234 213 262 243 228 210 200 196 181 201 206 208 201 198 210 217 220 224 218 226 234 239 249 141 119 148 61 21 347 337
153 209 154 133 157 149 136 154 166 137 154 220 209 236 244 213 246 263 264 202 186 160 136 96 104 137 158 140 138 145 142 172 201 218 229 218 156 124 101 67 43 30 17 12
216 218 191 156 106 206 197 192 183 107 115 39 174 260 242 239 193 195 46 109 178 169 134 110 90 84 95 95 95 101 101 97 98 128 127 142 114 104 64 39 42 43 38 32
224 226 175 199 207 191 222 221 155 138 163 232 197 264 210 225 211 165 140 131 135 129 117 110 100 83 75 76 84 88 88 88 82 84 86 88 91 89 67 48 39 45 40 36
176 191 192 213 213 190 164 153 149 176 153 80 200 260 229 213 218 203 152 131 115 111 112 108 97 93 84 75 74 82 89 86 85 86 85 88 83 85 92 80 62 49 41 38
181 20 213 206 179 192 142 100 61 55 140 232 197 205 222 193 218 175 141 128 122 114 106 101 98 95 84 79 70 74 87 85 85 86 84 81 80 69 76 69 63 48 45 40
175 154 141 250 174 152 155 135 137 190 228 235 108 201 243 222 209 184 154 141 132 121 115 111 101 90 84 76 81 68 72 77 78 77 76 75 72 61 56 63 57 47 39 31
179 181 186 153 241 182 182 203 205 210 191 159 105 225 176 333 130 140 139 133 128 121 115 111 105 100 90 88 84 83 74 72 72 74 73 68 61 48 45 47 46 43 35 21
162 152 111 68 5 187 163 206 354 97 25 180 194 234 178 132 132 137 137 138 128 123 120 114 108 101 101 95 93 90 86 79 77 73 73 72 72 61 46 48 44 43 28 15
136 141 19 88 16 30 240 142 128 174 185 222 195 247 220 178 160 154 151 147 137 128 124 116 109 109 108 106 108 100 93 86 78 76 73 77 81 74 60 47 40 34 23 16
149 306 124 139 197 180 144 184 64 116 235 241 195 206 17 186 172 165 159 151 137 133 134 126 120 111 105 101 99 97 96 96 93 90 89 85 78 66 55 45 35 27 18 13
115 81 173 200 20 6 27 204 189 220 188 251 350 256 323 219 180 166 154 145 140 136 132 130 126 112 107 100 91 91 95 94 87 83 81 74 67 58 49 40 33 26 18 15
156 184 143 127 216 28 206 196 186 187 72 194 190 187 360 182 172 164 152 153 147 147 148 140 135 121 105 98 96 96 95 91 88 84 75 68 58 51 45 38 30 23 21 18
142 134 260 210 94 125 181 166 191 170 200 190 236 165 176 168 167 161 159 156 151 152 154 138 124 117 113 107 106 100 96 94 88 81 73 63 54 46 39 33 30 27 25 18
169 150 141 57 102 145 167 168 186 207 225 217 252 221 194 185 177 170 161 156 154 162 155 141 139 134 127 127 119 112 108 99 88 78 70 57 47 42 33 30 30 25 27 23
188 138 133 166 253 206 213 215 205 209 220 250 255 244 211 164 162 165 166 166 166 163 154 150 146 144 148 147 136 127 114 102 91 71 56 48 42 38 32 28 28 25 23 19
147 142 162 188 336 129 286 221 206 206 209 204 204 198 156 167 177 177 170 175 173 165 162 155 156 159 153 142 153 142 138 121 99 76 52 41 37 31 28 28 22 18 14 13
144 128 131 134 168 222 105 329 216 220 237 222 195 154 182 190 186 177 177 167 165 162 158 157 157 151 147 156 157 146 138 125 83 62 44 35 36 26 24 18 13 12 9 4
347 165 116 181 216 314 203 183 181 192 255 220 224 182 161 144 135 166 179 174 163 157 155 155 157 157 158 157 158 155 122 84 75 62 28 28 27 24 10 6 11 10 7 357
92 68 145 169 201 217 358 154 172 168 273 320 207 177 157 152 184 190 163 146 145 146 148 151 155 154 157 157 157 125 102 104 132 193 23 20 14 7 2 10 12 5 360 350
118 78 200 179 238 282 214 162 197 174 297 335 226 182 164 181 200 138 143 143 145 149 150 152 154 159 153 150 143 126 150 178 202 162 36 12 8 14 6 11 9 358 346 332
176 163 175 133 206 248 161 140 198 34 302 292 191 171 171 120 123 142 139 140 146 150 153 157 153 150 154 158 163 170 180 189 189 150 157 25 14 14 1 359 349 344 339 334
211 212 188 208 216 76 203 248 221 187 272 229 183 155 143 137 149 150 153 153 153 153 156 161 160 158 165 173 180 181 189 193 199 185 260 2 356 343 351 351 347 343 350 352
236 186 236 196 210 230 231 235 240 220 233 164 171 162 153 156 157 151 146 148 152 156 161 170 169 172 175 181 186 192 195 202 201 222 274 321 318 330 346 356 355 353 348 346
228 155 187 266 273 283 247 229 226 207 189 137 136 153 152 141 143 145 145 153 161 165 171 176 180 183 187 189 194 200 205 211 217 237 272 294 307 338 344 345 344 336 329 337
191 185 184 211 210 195 219 201 170 175 181 155 142 116 117 142 145 153 158 166 166 171 174 179 188 190 194 198 203 207 214 216 220 238 259 287 312 328 332 328 325 332 332 326